Hourly Data Report for January 21, 2022

ATIKOKAN (AUT)
ONTARIO
Current Station Operator: ECCC - MSC

48°45'40.000" N
91°37'41.000" W
389.30 m
6020LPQ
71747
WCH

Download Data

Hourly Data (January 2022)
Hourly Data Report for January 21, 2022
TIME
LST
Temp Definition
°C
Dew Point Definition
°C
Rel Hum Definition
%
Precip. Amount Definition
mm

Wind Dir Definition
10's deg

Wind Spd Definition
km/h
Visibility Definition
km
Stn Press Definition
kPa
Hmdx Definition


Wind Chill Definition


Weather Definition


00:00 -32.3 -35.1 76 0.0 0 1   98.01   -33 LegendNANA
01:00 -31.6 -34.6 75 0.0 0 1   97.92   -33 LegendNANA
02:00 -25.5 -28.1 79 0.0 22 4   97.85   -30 LegendNANA
03:00 -24.2 -27.3 75 0.0 22 5   97.82   -29 LegendNANA
04:00 -23.9 -26.9 76 0.0 20 6   97.73   -30 LegendNANA
05:00 -23.1 -26.5 73 0.0 20 8   97.64   -30 LegendNANA
06:00 -22.1 -25.9 71 0.0 20 12   97.50   -31 LegendNANA
07:00 -21.1 -25.2 70 0.0 19 13   97.40   -30 LegendNANA
08:00 -20.4 -24.4 70 0.0 20 14   97.28   -29 LegendNANA
09:00 -18.9 -23.6 66 0.0 19 18   97.17   -29 LegendNANA
10:00 -16.9 -22.8 60 0.0 19 18   97.04   -26 LegendNANA
11:00 -14.4 -21.6 54 0.0 19 18   96.88   -23 LegendNANA
12:00 -12.6 -20.7 51 0.0 19 22   96.68   -22 LegendNANA
13:00 -11.1 -19.1 52 0.0 20 24   96.45   -20 LegendNANA
14:00 -9.8 -16.9 56 0.0 20 23   96.27   -18 LegendNANA
15:00 -9.6 -15.0 65 0.0 21 16   96.22   -16 LegendNANA
16:00 -9.5 -14.7 66 0.1 22 18   96.23   -17 LegendNANA
17:00 -10.6 -13.6 79 0.3 22 18   96.23   -18 LegendNANA
18:00 -10.9 -13.4 82 0.3 21 16   96.20   -18 LegendNANA
19:00 -10.9 -13.1 84 0.2 22 12   96.16   -17 LegendNANA
20:00 -10.5 -12.6 85 0.2 23 11   96.16   -16 LegendNANA
21:00 -10.0 -12.3 83 0.0 23 14   96.12   -16 LegendNANA
22:00 -9.6 -11.6 86 0.0 24 11   96.10   -15 LegendNANA
23:00 -9.4 -11.1 87 0.1 24 7   96.13   -13 LegendNANA

Notes on Data Quality.

Legend

  • E = Estimated
  • M = Missing
  • NA = Not Available*
  • [empty] = Indicates an unobserved value
Date modified: